Latest Weather Observations for PORTABLE NPWS NSW04
Issued at 6:23 pm EST Saturday 9 May 2026 (issued every 10 minutes, with the page automatically refreshed every 10 minutes)
| Station Details | ID: 250102 | Name: PORTABLE NPWS NSW04 | Lat: -36.81 | Lon: 148.55 | Height: 1170.0 m |
Portable automatic weather stations (PAWS) are operated by other organisations, such as Fire and Emergency Services, and are included here by agreement. Portable stations may be deployed to a location for a short period and their location may be subject to change without notice. Wind observations from these stations are provided from heights of either three (3) or ten (10) metres above ground level (AGL).
Data from the previous 72 hours. | See also: Recent months for locations in New South Wales| Date/Time EST |
Temp °C |
App Temp °C |
Dew Point °C |
Rel Hum % |
Delta-T °C |
Wind | Press QNH hPa |
Press MSL hPa |
Rain since 9am mm |
|||||
|---|---|---|---|---|---|---|---|---|---|---|---|---|---|---|
| Dir | Spd km/h |
Gust km/h |
Spd kts |
Gust kts |
||||||||||
| 09/06:10pm | 9.2 | 7.5 | 4.1 | 70 | 2.4 | SSE | 2 | 2 | 1 | 1 | - | - | 0.0 | |
| 09/06:00pm | 9.2 | 7.5 | 3.9 | 69 | 2.5 | SE | 2 | 2 | 1 | 1 | - | - | 0.0 | |
| 09/05:50pm | 9.0 | 7.7 | 4.3 | 72 | 2.2 | CALM | 0 | 2 | 0 | 1 | - | - | 0.0 | |
| 09/05:40pm | 8.9 | 7.7 | 4.5 | 74 | 2.1 | CALM | 0 | 2 | 0 | 1 | - | - | 0.0 | |
| 09/05:30pm | 9.0 | 7.5 | 4.9 | 75 | 2.0 | SSE | 2 | 2 | 1 | 1 | - | - | 0.0 | |
| 09/05:20pm | 9.2 | 8.1 | 5.3 | 76 | 1.9 | CALM | 0 | 2 | 0 | 1 | - | - | 0.0 | |
| 09/05:10pm | 9.8 | 8.7 | 5.3 | 73 | 2.2 | CALM | 0 | 2 | 0 | 1 | - | - | 0.0 | |
| 09/05:00pm | 10.3 | 9.3 | 5.6 | 72 | 2.3 | CALM | 0 | 0 | 0 | 0 | - | - | 0.0 | |
| 09/04:50pm | 10.7 | 9.7 | 5.4 | 70 | 2.6 | CALM | 0 | 2 | 0 | 1 | - | - | 0.0 | |
| 09/04:40pm | 11.1 | 10.1 | 5.4 | 68 | 2.8 | CALM | 0 | 0 | 0 | 0 | - | - | 0.0 | |
| 09/04:30pm | 11.4 | 10.5 | 6.2 | 70 | 2.6 | CALM | 0 | 0 | 0 | 0 | - | - | 0.0 | |
| 09/04:20pm | 12.0 | 11.1 | 6.1 | 67 | 3.0 | CALM | 0 | 0 | 0 | 0 | - | - | 0.0 | |
| 09/04:10pm | 12.5 | 11.7 | 6.4 | 66 | 3.1 | CALM | 0 | 0 | 0 | 0 | - | - | 0.0 | |
| 09/04:00pm | 12.7 | 11.9 | 6.6 | 66 | 3.1 | CALM | 0 | 2 | 0 | 1 | - | - | 0.0 | |
| 09/03:50pm | 13.5 | 12.7 | 6.3 | 61 | 3.7 | CALM | 0 | 2 | 0 | 1 | - | - | 0.0 | |
| 09/03:40pm | 13.3 | 12.0 | 6.2 | 62 | 3.6 | SSE | 2 | 2 | 1 | 1 | - | - | 0.0 | |
| 09/03:30pm | 13.5 | 12.2 | 6.1 | 61 | 3.8 | SSE | 2 | 2 | 1 | 1 | - | - | 0.0 | |
| 09/03:20pm | 13.6 | 12.3 | 6.2 | 61 | 3.8 | SSE | 2 | 2 | 1 | 1 | - | - | 0.0 | |
| 09/03:10pm | 13.8 | 12.6 | 6.4 | 61 | 3.8 | SSE | 2 | 2 | 1 | 1 | - | - | 0.0 | |
| 09/03:00pm | 14.0 | 12.8 | 6.4 | 60 | 3.9 | SSE | 2 | 2 | 1 | 1 | - | - | 0.0 | |
| 09/02:50pm | 14.1 | 12.9 | 6.4 | 60 | 4.0 | SSE | 2 | 2 | 1 | 1 | - | - | 0.0 | |
| 09/02:40pm | 14.4 | 13.5 | 6.2 | 58 | 4.2 | CALM | 0 | 2 | 0 | 1 | - | - | 0.0 | |
| 09/02:30pm | 14.0 | 12.9 | 6.8 | 62 | 3.7 | SSE | 2 | 2 | 1 | 1 | - | - | 0.0 | |
| 09/02:20pm | 14.0 | 13.1 | 5.9 | 58 | 4.1 | CALM | 0 | 2 | 0 | 1 | - | - | 0.0 | |
| 09/02:10pm | 14.0 | 13.2 | 6.3 | 59 | 3.9 | CALM | 0 | 2 | 0 | 1 | - | - | 0.0 | |
| 09/02:00pm | 13.8 | 12.5 | 6.0 | 59 | 4.0 | S | 2 | 2 | 1 | 1 | - | - | 0.0 | |
| 09/01:50pm | 13.6 | 12.3 | 5.8 | 59 | 3.9 | SSE | 2 | 2 | 1 | 1 | - | - | 0.0 | |
| 09/01:40pm | 13.5 | 12.2 | 6.0 | 60 | 3.8 | SE | 2 | 4 | 1 | 2 | - | - | 0.0 | |
| 09/01:30pm | 13.7 | 12.4 | 5.8 | 59 | 4.0 | SSE | 2 | 2 | 1 | 1 | - | - | 0.0 | |
| 09/01:20pm | 13.6 | 12.2 | 5.7 | 59 | 4.0 | W | 2 | 2 | 1 | 1 | - | - | 0.0 | |
| 09/01:10pm | 13.1 | 11.7 | 5.4 | 59 | 3.8 | SSE | 2 | 2 | 1 | 1 | - | - | 0.0 | |
| 09/01:00pm | 12.7 | 11.2 | 5.1 | 60 | 3.8 | SSE | 2 | 2 | 1 | 1 | - | - | 0.0 | |
| 09/12:50pm | 12.4 | 10.9 | 4.8 | 60 | 3.7 | SSE | 2 | 2 | 1 | 1 | - | - | 0.0 | |
| 09/12:40pm | 12.1 | 10.6 | 4.9 | 61 | 3.5 | SSE | 2 | 2 | 1 | 1 | - | - | 0.0 | |
| 09/12:30pm | 11.5 | 10.0 | 5.0 | 64 | 3.2 | S | 2 | 2 | 1 | 1 | - | - | 0.0 | |
| 09/12:20pm | 11.0 | 9.4 | 4.4 | 64 | 3.2 | SE | 2 | 2 | 1 | 1 | - | - | 0.0 | |
| 09/12:10pm | 10.6 | 9.1 | 4.9 | 68 | 2.8 | SE | 2 | 4 | 1 | 2 | - | - | 0.0 | |
| 09/12:00pm | 10.9 | 9.4 | 5.1 | 67 | 2.8 | SE | 2 | 2 | 1 | 1 | - | - | 0.0 | |
| 09/11:50am | 10.9 | 9.5 | 5.4 | 69 | 2.7 | S | 2 | 2 | 1 | 1 | - | - | 0.0 | |
| 09/11:40am | 10.2 | 8.8 | 5.4 | 72 | 2.3 | SSE | 2 | 2 | 1 | 1 | - | - | 0.0 | |
| 09/11:30am | 9.8 | 8.3 | 5.0 | 72 | 2.3 | SSE | 2 | 2 | 1 | 1 | - | - | 0.0 | |
| 09/11:20am | 9.7 | 8.7 | 5.4 | 74 | 2.1 | CALM | 0 | 2 | 0 | 1 | - | - | 0.0 | |
| 09/11:10am | 8.7 | 7.1 | 4.5 | 75 | 2.0 | ESE | 2 | 2 | 1 | 1 | - | - | 0.0 | |
| 09/11:00am | 8.0 | 6.4 | 4.6 | 79 | 1.6 | ESE | 2 | 2 | 1 | 1 | - | - | 0.0 | |
| 09/10:50am | 7.4 | 6.2 | 4.4 | 81 | 1.4 | CALM | 0 | 2 | 0 | 1 | - | - | 0.0 | |
| 09/10:40am | 6.8 | 5.6 | 4.8 | 87 | 0.9 | CALM | 0 | 2 | 0 | 1 | - | - | 0.0 | |
| 09/10:30am | 6.5 | 5.4 | 4.9 | 89 | 0.8 | CALM | 0 | 2 | 0 | 1 | - | - | 0.0 | |
| 09/10:20am | 6.1 | 5.0 | 5.3 | 95 | 0.4 | CALM | 0 | 2 | 0 | 1 | - | - | 0.0 | |
| 09/10:10am | 5.7 | 4.6 | 5.1 | 96 | 0.3 | CALM | 0 | 2 | 0 | 1 | - | - | 0.0 | |
| 09/10:00am | 5.4 | 4.3 | 5.0 | 97 | 0.2 | CALM | 0 | 2 | 0 | 1 | - | - | 0.0 | |
| 09/09:50am | 5.4 | 4.3 | 5.0 | 97 | 0.2 | CALM | 0 | 2 | 0 | 1 | - | - | 0.0 | |
| 09/09:40am | 5.4 | 4.3 | 5.0 | 97 | 0.2 | CALM | 0 | 2 | 0 | 1 | - | - | 0.0 | |
| 09/09:30am | 5.2 | 4.0 | 4.8 | 97 | 0.2 | CALM | 0 | 2 | 0 | 1 | - | - | 0.0 | |
| 09/09:20am | 5.0 | 3.4 | 4.6 | 97 | 0.2 | SE | 2 | 2 | 1 | 1 | - | - | 0.0 | |
| 09/09:10am | 4.8 | 3.2 | 4.4 | 97 | 0.2 | SE | 2 | 4 | 1 | 2 | - | - | 0.0 | |
| 09/09:00am | 4.8 | 3.2 | 4.4 | 97 | 0.2 | SE | 2 | 4 | 1 | 2 | - | - | 0.2 | |
| 09/08:50am | 4.6 | 3.0 | 4.3 | 98 | 0.1 | SE | 2 | 2 | 1 | 1 | - | - | 0.2 | |
| 09/08:40am | 4.5 | 2.8 | 4.2 | 98 | 0.1 | ESE | 2 | 2 | 1 | 1 | - | - | 0.2 | |
| 09/08:30am | 4.4 | 2.7 | 4.0 | 97 | 0.2 | ESE | 2 | 2 | 1 | 1 | - | - | 0.2 | |
| 09/08:20am | 4.3 | 3.0 | 4.0 | 98 | 0.1 | CALM | 0 | 2 | 0 | 1 | - | - | 0.2 | |
| 09/08:10am | 4.2 | 2.5 | 3.9 | 98 | 0.1 | SSE | 2 | 2 | 1 | 1 | - | - | 0.2 | |
| 09/08:00am | 4.2 | 2.5 | 3.8 | 97 | 0.2 | ENE | 2 | 2 | 1 | 1 | - | - | 0.2 | |
| 09/07:50am | 4.1 | 2.7 | 3.8 | 98 | 0.1 | CALM | 0 | 2 | 0 | 1 | - | - | 0.2 | |
| 09/07:40am | 4.0 | 2.2 | 3.7 | 98 | 0.1 | SSE | 2 | 2 | 1 | 1 | - | - | 0.2 | |
| 09/07:30am | 4.0 | 2.2 | 3.7 | 98 | 0.1 | ESE | 2 | 2 | 1 | 1 | - | - | 0.2 | |
| 09/07:20am | 4.0 | 2.2 | 3.6 | 97 | 0.2 | NNE | 2 | 2 | 1 | 1 | - | - | 0.2 | |
| 09/07:10am | 4.0 | 2.6 | 3.6 | 97 | 0.2 | CALM | 0 | 2 | 0 | 1 | - | - | 0.2 | |
| 09/07:00am | 3.9 | 2.1 | 3.5 | 97 | 0.2 | E | 2 | 2 | 1 | 1 | - | - | 0.2 | |
| 09/06:50am | 4.0 | 2.2 | 3.6 | 97 | 0.2 | SSE | 2 | 2 | 1 | 1 | - | - | 0.2 | |
| 09/06:40am | 4.0 | 2.2 | 3.5 | 97 | 0.2 | E | 2 | 2 | 1 | 1 | - | - | 0.2 | |
| 09/06:30am | 4.0 | 2.2 | 3.5 | 97 | 0.2 | SSE | 2 | 4 | 1 | 2 | - | - | 0.2 | |
| 09/06:20am | 3.9 | 2.1 | 3.5 | 97 | 0.2 | ESE | 2 | 2 | 1 | 1 | - | - | 0.2 | |
| 09/06:10am | 3.9 | 2.1 | 3.5 | 97 | 0.2 | SSE | 2 | 2 | 1 | 1 | - | - | 0.2 | |
| 09/06:00am | 4.0 | 2.2 | 3.5 | 97 | 0.2 | SE | 2 | 2 | 1 | 1 | - | - | 0.2 | |
| 09/05:50am | 4.0 | 2.2 | 3.5 | 97 | 0.2 | ESE | 2 | 2 | 1 | 1 | - | - | 0.2 | |
| 09/05:40am | 4.0 | 2.2 | 3.5 | 97 | 0.2 | SE | 2 | 4 | 1 | 2 | - | - | 0.2 | |
| 09/05:30am | 4.0 | 2.2 | 3.4 | 96 | 0.3 | ESE | 2 | 2 | 1 | 1 | - | - | 0.2 | |
| 09/05:20am | 4.0 | 2.2 | 3.4 | 96 | 0.3 | ENE | 2 | 2 | 1 | 1 | - | - | 0.2 | |
| 09/05:10am | 4.0 | 2.2 | 3.4 | 96 | 0.3 | E | 2 | 2 | 1 | 1 | - | - | 0.2 | |
| 09/05:00am | 4.1 | 2.3 | 3.3 | 94 | 0.4 | E | 2 | 2 | 1 | 1 | - | - | 0.2 | |
| 09/04:50am | 4.1 | 2.3 | 3.3 | 94 | 0.4 | ENE | 2 | 2 | 1 | 1 | - | - | 0.2 | |
| 09/04:40am | 4.2 | 2.4 | 3.3 | 94 | 0.4 | NE | 2 | 4 | 1 | 2 | - | - | 0.2 | |
| 09/04:30am | 4.2 | 2.4 | 3.2 | 93 | 0.4 | SE | 2 | 2 | 1 | 1 | - | - | 0.2 | |
| 09/04:20am | 4.2 | 2.4 | 3.2 | 93 | 0.4 | ESE | 2 | 2 | 1 | 1 | - | - | 0.2 | |
| 09/04:10am | 4.2 | 2.4 | 3.2 | 93 | 0.4 | ESE | 2 | 2 | 1 | 1 | - | - | 0.2 | |
| 09/04:00am | 4.3 | 2.5 | 3.2 | 93 | 0.5 | SE | 2 | 4 | 1 | 2 | - | - | 0.2 | |
| 09/03:50am | 4.3 | 2.5 | 3.3 | 93 | 0.4 | ESE | 2 | 2 | 1 | 1 | - | - | 0.2 | |
| 09/03:40am | 4.3 | 2.5 | 3.4 | 94 | 0.4 | SE | 2 | 2 | 1 | 1 | - | - | 0.2 | |
| 09/03:30am | 4.3 | 2.5 | 3.5 | 94 | 0.4 | E | 2 | 2 | 1 | 1 | - | - | 0.2 | |
| 09/03:20am | 4.2 | 2.4 | 3.5 | 95 | 0.3 | SSE | 2 | 2 | 1 | 1 | - | - | 0.2 | |
| 09/03:10am | 4.3 | 2.5 | 3.6 | 95 | 0.3 | WSW | 2 | 2 | 1 | 1 | - | - | 0.2 | |
| 09/03:00am | 4.4 | 2.6 | 3.7 | 95 | 0.3 | E | 2 | 2 | 1 | 1 | - | - | 0.2 | |
| 09/02:50am | 4.4 | 2.6 | 3.7 | 95 | 0.3 | NE | 2 | 2 | 1 | 1 | - | - | 0.2 | |
| 09/02:40am | 4.5 | 2.7 | 3.7 | 95 | 0.4 | NE | 2 | 2 | 1 | 1 | - | - | 0.2 | |
| 09/02:30am | 4.6 | 2.8 | 3.6 | 93 | 0.4 | NNE | 2 | 2 | 1 | 1 | - | - | 0.2 | |
| 09/02:20am | 4.6 | 2.8 | 3.5 | 93 | 0.5 | ENE | 2 | 2 | 1 | 1 | - | - | 0.2 | |
| 09/02:10am | 4.6 | 2.8 | 3.4 | 92 | 0.5 | ENE | 2 | 2 | 1 | 1 | - | - | 0.2 | |
| 09/02:00am | 4.5 | 2.7 | 3.6 | 94 | 0.4 | E | 2 | 2 | 1 | 1 | - | - | 0.2 | |
| 09/01:50am | 4.6 | 2.8 | 3.6 | 93 | 0.4 | ENE | 2 | 2 | 1 | 1 | - | - | 0.2 | |
| 09/01:40am | 4.7 | 2.9 | 3.5 | 92 | 0.5 | NNE | 2 | 2 | 1 | 1 | - | - | 0.2 | |
| 09/01:30am | 4.7 | 2.9 | 3.3 | 91 | 0.6 | ENE | 2 | 2 | 1 | 1 | - | - | 0.2 | |
| 09/01:20am | 4.6 | 2.8 | 3.3 | 91 | 0.6 | E | 2 | 2 | 1 | 1 | - | - | 0.2 | |
| 09/01:10am | 4.6 | 2.8 | 3.5 | 93 | 0.5 | ENE | 2 | 2 | 1 | 1 | - | - | 0.2 | |
| 09/01:00am | 4.6 | 2.8 | 3.4 | 92 | 0.5 | E | 2 | 2 | 1 | 1 | - | - | 0.2 | |
| 09/12:50am | 4.6 | 2.8 | 3.4 | 92 | 0.5 | E | 2 | 2 | 1 | 1 | - | - | 0.2 | |
| 09/12:40am | 4.7 | 2.9 | 3.2 | 90 | 0.7 | E | 2 | 2 | 1 | 1 | - | - | 0.2 | |
| 09/12:30am | 4.7 | 2.9 | 3.2 | 90 | 0.7 | E | 2 | 2 | 1 | 1 | - | - | 0.2 | |
| 09/12:20am | 4.7 | 2.8 | 3.1 | 89 | 0.7 | ENE | 2 | 2 | 1 | 1 | - | - | 0.2 | |
| 09/12:10am | 4.6 | 2.7 | 3.0 | 89 | 0.7 | ENE | 2 | 2 | 1 | 1 | - | - | 0.2 | |
| 09/12:00am | 4.7 | 2.9 | 3.3 | 91 | 0.6 | E | 2 | 4 | 1 | 2 | - | - | 0.2 | |
| Date/Time EST |
Temp °C |
App Temp °C |
Dew Point °C |
Rel Hum % |
Delta-T °C |
Wind | Press QNH hPa |
Press MSL hPa |
Rain since 9am mm |
|||||
|---|---|---|---|---|---|---|---|---|---|---|---|---|---|---|
| Dir | Spd km/h |
Gust km/h |
Spd kts |
Gust kts |
||||||||||
| 08/11:50pm | 4.7 | 2.8 | 3.1 | 89 | 0.7 | E | 2 | 4 | 1 | 2 | - | - | 0.2 | |
| 08/11:40pm | 4.8 | 3.0 | 3.6 | 92 | 0.5 | E | 2 | 2 | 1 | 1 | - | - | 0.2 | |
| 08/11:30pm | 4.9 | 3.1 | 3.6 | 91 | 0.6 | ENE | 2 | 4 | 1 | 2 | - | - | 0.2 | |
| 08/11:20pm | 5.0 | 3.2 | 3.5 | 90 | 0.7 | E | 2 | 4 | 1 | 2 | - | - | 0.2 | |
| 08/11:10pm | 5.0 | 3.2 | 3.5 | 90 | 0.7 | ENE | 2 | 2 | 1 | 1 | - | - | 0.2 | |
| 08/11:00pm | 5.0 | 3.2 | 3.4 | 89 | 0.7 | E | 2 | 4 | 1 | 2 | - | - | 0.2 | |
| 08/10:50pm | 5.0 | 3.2 | 3.4 | 89 | 0.7 | ESE | 2 | 2 | 1 | 1 | - | - | 0.2 | |
| 08/10:40pm | 5.0 | 3.2 | 3.4 | 89 | 0.7 | E | 2 | 4 | 1 | 2 | - | - | 0.2 | |
| 08/10:30pm | 4.9 | 3.1 | 3.5 | 91 | 0.6 | E | 2 | 4 | 1 | 2 | - | - | 0.0 | |
| 08/10:20pm | 5.0 | 3.3 | 3.8 | 92 | 0.5 | E | 2 | 2 | 1 | 1 | - | - | 0.0 | |
| 08/10:10pm | 5.0 | 3.3 | 3.8 | 92 | 0.5 | ENE | 2 | 2 | 1 | 1 | - | - | 0.0 | |
| 08/10:00pm | 5.1 | 3.4 | 3.8 | 91 | 0.6 | E | 2 | 4 | 1 | 2 | - | - | 0.0 | |
| 08/09:50pm | 5.2 | 3.4 | 3.7 | 90 | 0.7 | ESE | 2 | 4 | 1 | 2 | - | - | 0.0 | |
| 08/09:40pm | 5.2 | 3.5 | 3.8 | 91 | 0.6 | ESE | 2 | 2 | 1 | 1 | - | - | 0.0 | |
| 08/09:30pm | 5.2 | 3.5 | 4.0 | 92 | 0.5 | E | 2 | 2 | 1 | 1 | - | - | 0.0 | |
| 08/09:20pm | 5.2 | 3.5 | 4.0 | 92 | 0.5 | E | 2 | 2 | 1 | 1 | - | - | 0.0 | |
| 08/09:10pm | 5.2 | 3.6 | 4.3 | 94 | 0.4 | ENE | 2 | 2 | 1 | 1 | - | - | 0.0 | |
| 08/09:00pm | 5.2 | 3.6 | 4.3 | 94 | 0.4 | E | 2 | 2 | 1 | 1 | - | - | 0.0 | |
| 08/08:50pm | 5.2 | 3.6 | 4.5 | 95 | 0.3 | E | 2 | 2 | 1 | 1 | - | - | 0.0 | |
| 08/08:40pm | 5.2 | 3.6 | 4.6 | 96 | 0.3 | E | 2 | 2 | 1 | 1 | - | - | 0.0 | |
| 08/08:30pm | 5.3 | 3.7 | 4.7 | 96 | 0.3 | ESE | 2 | 4 | 1 | 2 | - | - | 0.0 | |
| 08/08:20pm | 5.4 | 3.9 | 4.8 | 96 | 0.3 | ENE | 2 | 4 | 1 | 2 | - | - | 0.0 | |
| 08/08:10pm | 5.6 | 4.1 | 4.9 | 95 | 0.3 | E | 2 | 2 | 1 | 1 | - | - | 0.0 | |
| 08/08:00pm | 5.7 | 4.2 | 4.8 | 94 | 0.4 | ENE | 2 | 2 | 1 | 1 | - | - | 0.0 | |
| 08/07:50pm | 6.0 | 4.4 | 4.7 | 91 | 0.6 | ENE | 2 | 2 | 1 | 1 | - | - | 0.0 | |
| 08/07:40pm | 6.3 | 4.7 | 4.3 | 87 | 0.9 | ENE | 2 | 2 | 1 | 1 | - | - | 0.0 | |
| 08/07:30pm | 6.5 | 4.8 | 3.9 | 83 | 1.2 | E | 2 | 2 | 1 | 1 | - | - | 0.0 | |
| 08/07:20pm | 6.5 | 4.8 | 3.9 | 83 | 1.2 | ENE | 2 | 2 | 1 | 1 | - | - | 0.0 | |
| 08/07:10pm | 6.6 | 4.9 | 3.9 | 83 | 1.2 | ESE | 2 | 2 | 1 | 1 | - | - | 0.0 | |
| 08/07:00pm | 6.7 | 4.9 | 3.6 | 80 | 1.4 | ENE | 2 | 2 | 1 | 1 | - | - | 0.0 | |
| 08/06:50pm | 6.8 | 5.0 | 3.7 | 80 | 1.4 | E | 2 | 4 | 1 | 2 | - | - | 0.0 | |
| 08/06:40pm | 6.8 | 5.0 | 3.7 | 80 | 1.4 | E | 2 | 2 | 1 | 1 | - | - | 0.0 | |
| 08/06:30pm | 6.9 | 5.1 | 3.7 | 80 | 1.5 | E | 2 | 2 | 1 | 1 | - | - | 0.0 | |
| 08/06:20pm | 7.0 | 5.2 | 3.6 | 79 | 1.6 | ESE | 2 | 4 | 1 | 2 | - | - | 0.0 | |
| 08/06:10pm | 7.1 | 5.3 | 3.6 | 78 | 1.6 | E | 2 | 2 | 1 | 1 | - | - | 0.0 | |
| 08/06:00pm | 7.2 | 5.4 | 3.6 | 78 | 1.7 | ENE | 2 | 2 | 1 | 1 | - | - | 0.0 | |
| 08/05:50pm | 7.1 | 5.4 | 3.8 | 79 | 1.5 | SE | 2 | 2 | 1 | 1 | - | - | 0.0 | |
| 08/05:40pm | 7.1 | 5.4 | 3.9 | 80 | 1.5 | SE | 2 | 2 | 1 | 1 | - | - | 0.0 | |
| 08/05:30pm | 7.2 | 5.5 | 3.8 | 79 | 1.6 | SE | 2 | 4 | 1 | 2 | - | - | 0.0 | |
| 08/05:20pm | 7.3 | 5.5 | 3.7 | 78 | 1.7 | SE | 2 | 2 | 1 | 1 | - | - | 0.0 | |
| 08/05:10pm | 7.4 | 5.6 | 3.6 | 77 | 1.7 | SE | 2 | 4 | 1 | 2 | - | - | 0.0 | |
| 08/05:00pm | 7.6 | 5.9 | 3.8 | 77 | 1.8 | SE | 2 | 4 | 1 | 2 | - | - | 0.0 | |
| 08/04:50pm | 7.9 | 6.2 | 4.0 | 76 | 1.8 | SE | 2 | 4 | 1 | 2 | - | - | 0.0 | |
| 08/04:40pm | 8.1 | 6.4 | 4.0 | 75 | 1.9 | ESE | 2 | 4 | 1 | 2 | - | - | 0.0 | |
| 08/04:30pm | 8.4 | 6.7 | 3.8 | 73 | 2.1 | SE | 2 | 2 | 1 | 1 | - | - | 0.0 | |
| 08/04:20pm | 8.7 | 6.9 | 3.7 | 71 | 2.3 | ESE | 2 | 4 | 1 | 2 | - | - | 0.0 | |
| 08/04:10pm | 8.9 | 7.1 | 3.5 | 69 | 2.5 | ESE | 2 | 4 | 1 | 2 | - | - | 0.0 | |
| 08/04:00pm | 8.9 | 7.1 | 3.5 | 69 | 2.5 | E | 2 | 2 | 1 | 1 | - | - | 0.0 | |
| 08/03:50pm | 9.1 | 7.3 | 3.7 | 69 | 2.5 | ENE | 2 | 2 | 1 | 1 | - | - | 0.0 | |
| 08/03:40pm | 8.9 | 7.1 | 3.5 | 69 | 2.5 | ENE | 2 | 2 | 1 | 1 | - | - | 0.0 | |
| 08/03:30pm | 9.0 | 7.3 | 3.8 | 70 | 2.4 | ESE | 2 | 4 | 1 | 2 | - | - | 0.0 | |
| 08/03:20pm | 9.8 | 8.0 | 3.6 | 65 | 2.9 | ENE | 2 | 4 | 1 | 2 | - | - | 0.0 | |
| 08/03:10pm | 10.9 | 9.2 | 3.9 | 62 | 3.3 | ENE | 2 | 4 | 1 | 2 | - | - | 0.0 | |
| 08/03:00pm | 10.7 | 8.9 | 3.5 | 61 | 3.4 | ESE | 2 | 4 | 1 | 2 | - | - | 0.0 | |
| 08/02:50pm | 10.8 | 9.0 | 3.7 | 61 | 3.4 | ESE | 2 | 2 | 1 | 1 | - | - | 0.0 | |
| 08/02:40pm | 10.8 | 9.2 | 4.3 | 64 | 3.1 | ENE | 2 | 2 | 1 | 1 | - | - | 0.0 | |
| 08/02:30pm | 10.5 | 8.8 | 4.2 | 65 | 3.0 | ESE | 2 | 4 | 1 | 2 | - | - | 0.0 | |
| 08/02:20pm | 10.0 | 8.3 | 4.0 | 66 | 2.8 | E | 2 | 2 | 1 | 1 | - | - | 0.0 | |
| 08/02:10pm | 10.0 | 8.3 | 4.2 | 67 | 2.8 | E | 2 | 4 | 1 | 2 | - | - | 0.0 | |
| 08/02:00pm | 10.3 | 8.7 | 4.3 | 66 | 2.9 | E | 2 | 4 | 1 | 2 | - | - | 0.0 | |
| 08/01:50pm | 10.0 | 8.3 | 4.1 | 67 | 2.8 | E | 2 | 4 | 1 | 2 | - | - | 0.0 | |
| 08/01:40pm | 10.7 | 9.2 | 4.8 | 67 | 2.9 | E | 2 | 4 | 1 | 2 | - | - | 0.0 | |
| 08/01:30pm | 10.2 | 8.6 | 4.5 | 68 | 2.7 | ENE | 2 | 4 | 1 | 2 | - | - | 0.0 | |
| 08/01:20pm | 10.3 | 8.5 | 3.6 | 63 | 3.2 | ENE | 2 | 4 | 1 | 2 | - | - | 0.0 | |
| 08/01:10pm | 10.3 | 8.5 | 3.5 | 62 | 3.2 | E | 2 | 2 | 1 | 1 | - | - | 0.0 | |
| 08/01:00pm | 10.3 | 8.5 | 3.3 | 62 | 3.3 | ESE | 2 | 4 | 1 | 2 | - | - | 0.0 | |
| 08/12:50pm | 10.8 | 9.0 | 3.7 | 61 | 3.4 | E | 2 | 4 | 1 | 2 | - | - | 0.0 | |
| 08/12:40pm | 11.4 | 9.6 | 3.2 | 57 | 3.9 | E | 2 | 4 | 1 | 2 | - | - | 0.0 | |
| 08/12:30pm | 11.1 | 9.4 | 3.8 | 60 | 3.5 | E | 2 | 4 | 1 | 2 | - | - | 0.0 | |
| 08/12:20pm | 10.7 | 8.8 | 3.1 | 59 | 3.5 | E | 2 | 4 | 1 | 2 | - | - | 0.0 | |
| 08/12:10pm | 11.1 | 9.4 | 3.9 | 61 | 3.4 | ENE | 2 | 4 | 1 | 2 | - | - | 0.0 | |
| 08/12:00pm | 10.9 | 9.0 | 2.8 | 57 | 3.8 | NE | 2 | 2 | 1 | 1 | - | - | 0.0 | |
| 08/11:50am | 10.4 | 8.6 | 3.5 | 62 | 3.2 | E | 2 | 2 | 1 | 1 | - | - | 0.0 | |
| 08/11:40am | 11.0 | 9.2 | 3.4 | 59 | 3.6 | E | 2 | 2 | 1 | 1 | - | - | 0.0 | |
| 08/11:30am | 10.6 | 8.8 | 3.4 | 61 | 3.4 | E | 2 | 4 | 1 | 2 | - | - | 0.0 | |
| 08/11:20am | 11.0 | 9.1 | 2.9 | 57 | 3.8 | NE | 2 | 2 | 1 | 1 | - | - | 0.0 | |
| 08/11:10am | 10.3 | 8.6 | 3.9 | 64 | 3.0 | ENE | 2 | 2 | 1 | 1 | - | - | 0.0 | |
| 08/11:00am | 9.3 | 7.4 | 2.9 | 64 | 2.9 | E | 2 | 2 | 1 | 1 | - | - | 0.0 | |
| 08/10:50am | 9.4 | 7.4 | 2.5 | 62 | 3.1 | ENE | 2 | 2 | 1 | 1 | - | - | 0.0 | |
| 08/10:40am | 9.5 | 7.6 | 2.9 | 63 | 3.0 | ENE | 2 | 2 | 1 | 1 | - | - | 0.0 | |
| 08/10:30am | 9.9 | 8.2 | 3.8 | 66 | 2.9 | ESE | 2 | 2 | 1 | 1 | - | - | 0.0 | |
| 08/10:20am | 9.6 | 7.8 | 3.3 | 65 | 2.9 | E | 2 | 2 | 1 | 1 | - | - | 0.0 | |
| 08/10:10am | 9.0 | 7.1 | 2.9 | 65 | 2.8 | E | 2 | 2 | 1 | 1 | - | - | 0.0 | |
| 08/10:00am | 8.6 | 6.7 | 3.1 | 68 | 2.5 | E | 2 | 2 | 1 | 1 | - | - | 0.0 | |
| 08/09:50am | 8.5 | 6.7 | 3.3 | 70 | 2.4 | E | 2 | 2 | 1 | 1 | - | - | 0.0 | |
| 08/09:40am | 8.2 | 6.3 | 2.7 | 68 | 2.5 | E | 2 | 2 | 1 | 1 | - | - | 0.0 | |
| 08/09:30am | 8.1 | 6.2 | 2.6 | 68 | 2.5 | E | 2 | 2 | 1 | 1 | - | - | 0.0 | |
| 08/09:20am | 7.3 | 5.3 | 2.3 | 70 | 2.2 | E | 2 | 2 | 1 | 1 | - | - | 0.0 | |
| 08/09:10am | 7.1 | 5.1 | 2.4 | 72 | 2.1 | E | 2 | 4 | 1 | 2 | - | - | 0.0 | |
| 08/09:00am | 6.7 | 4.8 | 2.8 | 76 | 1.7 | E | 2 | 2 | 1 | 1 | - | - | 3.6 | |
| 08/08:50am | 6.3 | 4.3 | 2.2 | 75 | 1.8 | ENE | 2 | 2 | 1 | 1 | - | - | 3.6 | |
| 08/08:40am | 6.1 | 4.1 | 2.1 | 75 | 1.8 | ESE | 2 | 2 | 1 | 1 | - | - | 3.6 | |
| 08/08:30am | 5.6 | 3.5 | 2.0 | 77 | 1.6 | ENE | 2 | 2 | 1 | 1 | - | - | 3.6 | |
| 08/08:20am | 5.4 | 3.3 | 1.8 | 77 | 1.6 | E | 2 | 2 | 1 | 1 | - | - | 3.6 | |
| 08/08:10am | 5.4 | 3.3 | 2.0 | 79 | 1.5 | E | 2 | 2 | 1 | 1 | - | - | 3.6 | |
| 08/08:00am | 5.3 | 3.2 | 1.8 | 78 | 1.5 | E | 2 | 2 | 1 | 1 | - | - | 3.6 | |
| 08/07:50am | 5.1 | 3.0 | 1.7 | 79 | 1.5 | E | 2 | 2 | 1 | 1 | - | - | 3.6 | |
| 08/07:40am | 4.7 | 2.6 | 1.6 | 80 | 1.3 | E | 2 | 2 | 1 | 1 | - | - | 3.6 | |
| 08/07:30am | 4.5 | 2.4 | 1.5 | 81 | 1.3 | ESE | 2 | 2 | 1 | 1 | - | - | 3.6 | |
| 08/07:20am | 4.3 | 2.2 | 1.5 | 82 | 1.2 | E | 2 | 2 | 1 | 1 | - | - | 3.6 | |
| 08/07:10am | 3.9 | 1.8 | 1.4 | 84 | 1.1 | E | 2 | 2 | 1 | 1 | - | - | 3.6 | |
| 08/07:00am | 3.5 | 1.4 | 1.4 | 86 | 0.9 | E | 2 | 2 | 1 | 1 | - | - | 3.6 | |
| 08/06:50am | 3.0 | 0.9 | 1.5 | 90 | 0.6 | E | 2 | 2 | 1 | 1 | - | - | 3.6 | |
| 08/06:40am | 2.9 | 0.8 | 1.5 | 90 | 0.6 | E | 2 | 2 | 1 | 1 | - | - | 3.6 | |
| 08/06:30am | 2.7 | 0.6 | 1.5 | 92 | 0.5 | ESE | 2 | 2 | 1 | 1 | - | - | 3.6 | |
| 08/06:20am | 2.5 | 0.7 | 1.4 | 92 | 0.5 | CALM | 0 | 2 | 0 | 1 | - | - | 3.6 | |
| 08/06:10am | 2.4 | 0.2 | 1.3 | 92 | 0.5 | SE | 2 | 2 | 1 | 1 | - | - | 3.6 | |
| 08/06:00am | 2.5 | 0.3 | 1.3 | 92 | 0.5 | ESE | 2 | 2 | 1 | 1 | - | - | 3.6 | |
| 08/05:50am | 2.5 | 0.3 | 1.3 | 92 | 0.5 | SE | 2 | 2 | 1 | 1 | - | - | 3.6 | |
| 08/05:40am | 2.4 | 0.3 | 1.4 | 93 | 0.4 | ESE | 2 | 2 | 1 | 1 | - | - | 3.6 | |
| 08/05:30am | 2.3 | 0.1 | 1.3 | 93 | 0.4 | E | 2 | 2 | 1 | 1 | - | - | 3.6 | |
| 08/05:20am | 2.2 | 0.0 | 1.3 | 94 | 0.4 | E | 2 | 2 | 1 | 1 | - | - | 3.6 | |
| 08/05:10am | 2.0 | -0.2 | 1.1 | 94 | 0.4 | ESE | 2 | 2 | 1 | 1 | - | - | 3.6 | |
| 08/05:00am | 2.0 | -0.2 | 1.1 | 94 | 0.4 | SSE | 2 | 2 | 1 | 1 | - | - | 3.6 | |
| 08/04:50am | 2.0 | -0.2 | 1.1 | 94 | 0.4 | SSE | 2 | 2 | 1 | 1 | - | - | 3.6 | |
| 08/04:40am | 2.0 | -0.2 | 0.9 | 92 | 0.4 | S | 2 | 2 | 1 | 1 | - | - | 3.6 | |
| 08/04:30am | 2.1 | -0.1 | 1.0 | 92 | 0.5 | ESE | 2 | 2 | 1 | 1 | - | - | 3.6 | |
| 08/04:20am | 2.2 | 0.0 | 1.0 | 92 | 0.5 | ESE | 2 | 2 | 1 | 1 | - | - | 3.6 | |
| 08/04:10am | 2.2 | 0.0 | 1.0 | 92 | 0.5 | ESE | 2 | 2 | 1 | 1 | - | - | 3.6 | |
| 08/04:00am | 2.1 | -0.1 | 0.8 | 91 | 0.5 | SE | 2 | 2 | 1 | 1 | - | - | 3.6 | |
| 08/03:50am | 2.1 | -0.2 | 0.7 | 90 | 0.6 | SSE | 2 | 2 | 1 | 1 | - | - | 3.6 | |
| 08/03:40am | 2.2 | -0.1 | 0.7 | 90 | 0.6 | SE | 2 | 2 | 1 | 1 | - | - | 3.6 | |
| 08/03:30am | 2.2 | -0.1 | 0.7 | 90 | 0.6 | SE | 2 | 2 | 1 | 1 | - | - | 3.6 | |
| 08/03:20am | 2.0 | -0.3 | 0.5 | 90 | 0.6 | SSE | 2 | 2 | 1 | 1 | - | - | 3.6 | |
| 08/03:10am | 2.1 | -0.2 | 0.5 | 89 | 0.6 | NE | 2 | 2 | 1 | 1 | - | - | 3.6 | |
| 08/03:00am | 2.0 | 0.1 | 0.5 | 90 | 0.6 | CALM | 0 | 2 | 0 | 1 | - | - | 3.6 | |
| 08/02:50am | 2.0 | 0.1 | 0.4 | 89 | 0.6 | CALM | 0 | 2 | 0 | 1 | - | - | 3.6 | |
| 08/02:40am | 2.1 | 0.2 | 0.4 | 88 | 0.7 | CALM | 0 | 2 | 0 | 1 | - | - | 3.6 | |
| 08/02:30am | 2.3 | 0.4 | 0.3 | 87 | 0.8 | CALM | 0 | 2 | 0 | 1 | - | - | 3.6 | |
| 08/02:20am | 2.2 | 0.2 | 0.2 | 87 | 0.8 | CALM | 0 | 2 | 0 | 1 | - | - | 3.6 | |
| 08/02:10am | 2.0 | 0.0 | 0.1 | 87 | 0.8 | CALM | 0 | 2 | 0 | 1 | - | - | 3.6 | |
| 08/02:00am | 1.8 | -0.6 | -0.1 | 87 | 0.8 | SE | 2 | 2 | 1 | 1 | - | - | 3.6 | |
| 08/01:50am | 1.6 | -0.8 | -0.2 | 88 | 0.7 | ESE | 2 | 2 | 1 | 1 | - | - | 3.6 | |
| 08/01:40am | 1.6 | -0.8 | -0.3 | 87 | 0.7 | ESE | 2 | 2 | 1 | 1 | - | - | 3.6 | |
| 08/01:30am | 1.5 | -0.9 | -0.3 | 88 | 0.7 | ESE | 2 | 2 | 1 | 1 | - | - | 3.6 | |
| 08/01:20am | 1.7 | -0.7 | -0.4 | 86 | 0.8 | ESE | 2 | 2 | 1 | 1 | - | - | 3.6 | |
| 08/01:10am | 1.9 | -0.5 | -0.5 | 84 | 0.9 | ESE | 2 | 2 | 1 | 1 | - | - | 3.6 | |
| 08/01:00am | 2.0 | -0.4 | -0.6 | 83 | 1.0 | ESE | 2 | 2 | 1 | 1 | - | - | 3.6 | |
| 08/12:50am | 1.8 | -0.7 | -0.7 | 83 | 1.0 | E | 2 | 2 | 1 | 1 | - | - | 3.6 | |
| 08/12:40am | 1.7 | -0.8 | -0.7 | 84 | 0.9 | ESE | 2 | 2 | 1 | 1 | - | - | 3.6 | |
| 08/12:30am | 1.9 | -0.6 | -0.7 | 83 | 1.0 | ESE | 2 | 2 | 1 | 1 | - | - | 3.6 | |
| 08/12:20am | 2.0 | -0.5 | -0.9 | 81 | 1.1 | ESE | 2 | 2 | 1 | 1 | - | - | 3.6 | |
| 08/12:10am | 2.0 | -0.5 | -0.9 | 81 | 1.1 | ESE | 2 | 2 | 1 | 1 | - | - | 3.6 | |
| 08/12:00am | 2.0 | -0.5 | -1.2 | 79 | 1.2 | E | 2 | 2 | 1 | 1 | - | - | 3.6 | |
| Date/Time EST |
Temp °C |
App Temp °C |
Dew Point °C |
Rel Hum % |
Delta-T °C |
Wind | Press QNH hPa |
Press MSL hPa |
Rain since 9am mm |
|||||
|---|---|---|---|---|---|---|---|---|---|---|---|---|---|---|
| Dir | Spd km/h |
Gust km/h |
Spd kts |
Gust kts |
||||||||||
| 07/11:50pm | 1.8 | -0.7 | -1.1 | 81 | 1.1 | ESE | 2 | 2 | 1 | 1 | - | - | 3.6 | |
| 07/11:40pm | 1.7 | -0.8 | -1.3 | 80 | 1.2 | E | 2 | 2 | 1 | 1 | - | - | 3.6 | |
| 07/11:30pm | 1.4 | -1.1 | -1.1 | 83 | 1.0 | E | 2 | 2 | 1 | 1 | - | - | 3.6 | |
| 07/11:20pm | 1.2 | -1.3 | -1.3 | 83 | 1.0 | ESE | 2 | 2 | 1 | 1 | - | - | 3.6 | |
| 07/11:10pm | 1.0 | -1.5 | -1.1 | 86 | 0.8 | ESE | 2 | 2 | 1 | 1 | - | - | 3.6 | |
| 07/11:00pm | 0.8 | -1.7 | -1.2 | 86 | 0.8 | SE | 2 | 2 | 1 | 1 | - | - | 3.6 | |
| 07/10:50pm | 0.7 | -1.8 | -1.2 | 87 | 0.8 | ESE | 2 | 2 | 1 | 1 | - | - | 3.6 | |
| 07/10:40pm | 0.9 | -1.6 | -1.1 | 86 | 0.8 | ESE | 2 | 2 | 1 | 1 | - | - | 3.6 | |
| 07/10:30pm | 1.0 | -1.5 | -1.0 | 86 | 0.8 | SE | 2 | 2 | 1 | 1 | - | - | 3.6 | |
| 07/10:20pm | 1.0 | -1.5 | -0.9 | 87 | 0.7 | SE | 2 | 2 | 1 | 1 | - | - | 3.6 | |
| 07/10:10pm | 1.1 | -1.4 | -1.0 | 86 | 0.8 | SE | 2 | 2 | 1 | 1 | - | - | 3.6 | |
| 07/10:00pm | 1.2 | -1.3 | -1.2 | 84 | 0.9 | E | 2 | 2 | 1 | 1 | - | - | 3.6 | |
| 07/09:50pm | 1.3 | -1.2 | -1.1 | 84 | 0.9 | ESE | 2 | 2 | 1 | 1 | - | - | 3.6 | |
| 07/09:40pm | 1.2 | -1.3 | -1.2 | 84 | 0.9 | ESE | 2 | 2 | 1 | 1 | - | - | 3.6 | |
| 07/09:30pm | 1.2 | -1.3 | -1.2 | 84 | 0.9 | ESE | 2 | 2 | 1 | 1 | - | - | 3.6 | |
| 07/09:20pm | 1.0 | -1.6 | -1.4 | 84 | 0.9 | ESE | 2 | 2 | 1 | 1 | - | - | 3.6 | |
| 07/09:10pm | 1.0 | -1.5 | -1.3 | 85 | 0.9 | ESE | 2 | 2 | 1 | 1 | - | - | 3.6 | |
| 07/09:00pm | 1.0 | -1.5 | -1.3 | 85 | 0.9 | SW | 2 | 2 | 1 | 1 | - | - | 3.6 | |
| 07/08:50pm | 1.0 | -1.6 | -1.4 | 84 | 0.9 | S | 2 | 4 | 1 | 2 | - | - | 3.6 | |
| 07/08:40pm | 1.0 | -1.6 | -1.5 | 83 | 0.9 | SSE | 2 | 2 | 1 | 1 | - | - | 3.6 | |
| 07/08:30pm | 1.0 | -1.6 | -1.4 | 84 | 0.9 | E | 2 | 2 | 1 | 1 | - | - | 3.6 | |
| 07/08:20pm | 0.9 | -1.7 | -1.5 | 84 | 1.0 | ENE | 2 | 2 | 1 | 1 | - | - | 3.6 | |
| 07/08:10pm | 0.8 | -1.8 | -1.4 | 85 | 0.9 | E | 2 | 4 | 1 | 2 | - | - | 3.6 | |
| 07/08:00pm | 0.8 | -1.8 | -1.5 | 84 | 0.9 | E | 2 | 2 | 1 | 1 | - | - | 3.6 | |
| 07/07:50pm | 0.8 | -1.8 | -1.4 | 85 | 0.9 | E | 2 | 2 | 1 | 1 | - | - | 3.6 | |
| 07/07:40pm | 0.7 | -1.9 | -1.5 | 85 | 0.9 | ENE | 2 | 2 | 1 | 1 | - | - | 3.6 | |
| 07/07:30pm | 0.8 | -1.8 | -1.5 | 84 | 0.9 | E | 2 | 2 | 1 | 1 | - | - | 3.6 | |
| 07/07:20pm | 0.8 | -1.8 | -1.6 | 84 | 1.0 | E | 2 | 2 | 1 | 1 | - | - | 3.6 | |
| 07/07:10pm | 0.8 | -1.8 | -1.7 | 83 | 1.0 | ENE | 2 | 2 | 1 | 1 | - | - | 3.6 | |
| 07/07:00pm | 0.8 | -1.8 | -1.9 | 82 | 1.1 | ESE | 2 | 2 | 1 | 1 | - | - | 3.6 | |
| 07/06:50pm | 0.9 | -1.7 | -1.9 | 81 | 1.1 | E | 2 | 2 | 1 | 1 | - | - | 3.6 | |
| 07/06:40pm | 1.0 | -1.7 | -2.1 | 80 | 1.2 | ESE | 2 | 2 | 1 | 1 | - | - | 3.6 | |
| 07/06:30pm | 1.0 | -1.7 | -2.1 | 80 | 1.2 | ENE | 2 | 4 | 1 | 2 | - | - | 3.6 | |
| 07/06:20pm | 1.0 | -1.7 | -2.6 | 77 | 1.4 | ENE | 2 | 2 | 1 | 1 | - | - | 3.6 | |
| 07/06:10pm | 0.8 | -1.9 | -2.8 | 77 | 1.4 | ENE | 2 | 2 | 1 | 1 | - | - | 3.6 | |
| 07/06:00pm | 0.7 | -2.1 | -3.0 | 76 | 1.4 | E | 2 | 4 | 1 | 2 | - | - | 3.6 | |
| 07/05:50pm | 0.7 | -2.1 | -3.1 | 76 | 1.4 | ESE | 2 | 2 | 1 | 1 | - | - | 3.6 | |
| 07/05:40pm | 0.7 | -2.1 | -3.4 | 74 | 1.5 | ENE | 2 | 2 | 1 | 1 | - | - | 3.6 | |
| 07/05:30pm | 0.6 | -2.2 | -3.3 | 75 | 1.4 | ESE | 2 | 2 | 1 | 1 | - | - | 3.6 | |
| 07/05:20pm | 0.7 | -2.1 | -3.4 | 74 | 1.5 | E | 2 | 2 | 1 | 1 | - | - | 3.6 | |
| 07/05:10pm | 0.7 | -2.1 | -3.4 | 74 | 1.5 | E | 2 | 2 | 1 | 1 | - | - | 3.6 | |
| 07/05:00pm | 0.9 | -1.9 | -3.1 | 74 | 1.5 | E | 2 | 2 | 1 | 1 | - | - | 3.6 | |
| 07/04:50pm | 1.0 | -1.8 | -2.9 | 75 | 1.5 | E | 2 | 2 | 1 | 1 | - | - | 3.6 | |
| 07/04:40pm | 1.2 | -1.6 | -2.9 | 74 | 1.6 | E | 2 | 2 | 1 | 1 | - | - | 3.6 | |
| 07/04:30pm | 1.6 | -1.1 | -2.5 | 74 | 1.5 | E | 2 | 2 | 1 | 1 | - | - | 3.6 | |
| 07/04:20pm | 1.7 | -1.1 | -3.2 | 70 | 1.9 | E | 2 | 2 | 1 | 1 | - | - | 3.6 | |
| 07/04:10pm | 1.4 | -1.4 | -3.5 | 70 | 1.9 | ESE | 2 | 2 | 1 | 1 | - | - | 3.6 | |
| 07/04:00pm | 1.5 | -1.3 | -3.3 | 70 | 1.8 | ENE | 2 | 2 | 1 | 1 | - | - | 3.6 | |
| 07/03:50pm | 1.5 | -1.2 | -2.7 | 73 | 1.6 | ESE | 2 | 2 | 1 | 1 | - | - | 3.6 | |
| 07/03:40pm | 1.7 | -1.1 | -3.1 | 70 | 1.9 | E | 2 | 2 | 1 | 1 | - | - | 3.6 | |
| 07/03:30pm | 2.2 | -0.5 | -2.8 | 69 | 1.9 | E | 2 | 2 | 1 | 1 | - | - | 3.6 | |
| 07/03:20pm | 3.3 | 0.6 | -2.5 | 66 | 2.2 | E | 2 | 2 | 1 | 1 | - | - | 3.6 | |
| 07/03:10pm | 3.1 | 0.4 | -2.6 | 66 | 2.2 | ENE | 2 | 4 | 1 | 2 | - | - | 3.6 | |
| 07/03:00pm | 3.3 | 0.5 | -3.0 | 63 | 2.4 | E | 2 | 2 | 1 | 1 | - | - | 3.6 | |
| 07/02:50pm | 3.0 | 0.1 | -3.8 | 61 | 2.5 | E | 2 | 4 | 1 | 2 | - | - | 3.6 | |
| 07/02:40pm | 3.6 | 0.7 | -4.2 | 56 | 2.8 | ENE | 2 | 2 | 1 | 1 | - | - | 3.6 | |
| 07/02:30pm | 4.1 | 1.2 | -3.8 | 56 | 2.9 | ENE | 2 | 4 | 1 | 2 | - | - | 3.6 | |
| 07/02:20pm | 4.1 | 1.3 | -3.3 | 58 | 2.8 | E | 2 | 2 | 1 | 1 | - | - | 3.6 | |
| 07/02:10pm | 3.9 | 1.0 | -3.9 | 57 | 2.9 | ENE | 2 | 2 | 1 | 1 | - | - | 3.6 | |
| 07/02:00pm | 3.6 | 0.9 | -2.5 | 64 | 2.3 | E | 2 | 2 | 1 | 1 | - | - | 3.6 | |
| 07/01:50pm | 2.9 | 0.3 | -1.8 | 71 | 1.8 | E | 2 | 4 | 1 | 2 | - | - | 3.6 | |
| 07/01:40pm | 3.9 | 1.4 | -1.0 | 70 | 1.9 | ENE | 2 | 4 | 1 | 2 | - | - | 3.6 | |
| 07/01:30pm | 4.5 | 2.0 | -0.9 | 68 | 2.2 | ENE | 2 | 4 | 1 | 2 | - | - | 3.6 | |
| 07/01:20pm | 4.0 | 1.6 | -0.4 | 73 | 1.8 | E | 2 | 2 | 1 | 1 | - | - | 3.6 | |
| 07/01:10pm | 3.6 | 1.1 | -1.0 | 72 | 1.8 | E | 2 | 4 | 1 | 2 | - | - | 3.6 | |
| 07/01:00pm | 3.3 | 0.9 | -0.4 | 77 | 1.5 | E | 2 | 4 | 1 | 2 | - | - | 3.6 | |
| 07/12:50pm | 3.5 | 1.2 | 0.2 | 79 | 1.3 | E | 2 | 2 | 1 | 1 | - | - | 3.6 | |
| 07/12:40pm | 4.0 | 1.7 | 0.5 | 78 | 1.4 | E | 2 | 4 | 1 | 2 | - | - | 3.6 | |
| 07/12:30pm | 3.5 | 1.2 | 0.6 | 81 | 1.2 | E | 2 | 2 | 1 | 1 | - | - | 3.6 | |
| 07/12:20pm | 2.9 | 0.7 | 1.3 | 89 | 0.7 | E | 2 | 4 | 1 | 2 | - | - | 3.6 | |
| 07/12:10pm | 2.5 | 0.3 | 0.9 | 89 | 0.7 | ENE | 2 | 2 | 1 | 1 | - | - | 3.6 | |
| 07/12:00pm | 2.1 | -0.1 | 1.0 | 92 | 0.5 | E | 2 | 2 | 1 | 1 | - | - | 3.6 | |
| 07/11:50am | 1.9 | -0.4 | 0.7 | 92 | 0.5 | ENE | 2 | 2 | 1 | 1 | - | - | 3.6 | |
| 07/11:40am | 1.7 | -0.6 | 0.7 | 93 | 0.4 | ENE | 2 | 2 | 1 | 1 | - | - | 3.6 | |
| 07/11:30am | 1.6 | -0.7 | 0.7 | 94 | 0.4 | E | 2 | 2 | 1 | 1 | - | - | 3.6 | |
| 07/11:20am | 1.4 | -0.9 | 0.6 | 94 | 0.3 | ENE | 2 | 2 | 1 | 1 | - | - | 3.6 | |
| 07/11:10am | 1.8 | -0.4 | 0.9 | 94 | 0.4 | E | 2 | 2 | 1 | 1 | - | - | 3.6 | |
| 07/11:00am | 1.6 | -0.6 | 0.8 | 94 | 0.3 | NE | 2 | 2 | 1 | 1 | - | - | 3.6 | |
| 07/10:50am | 1.7 | -0.5 | 0.8 | 94 | 0.4 | ENE | 2 | 2 | 1 | 1 | - | - | 3.6 | |
| 07/10:40am | 1.3 | -1.0 | 0.5 | 94 | 0.3 | E | 2 | 4 | 1 | 2 | - | - | 3.6 | |
| 07/10:30am | 1.1 | -1.2 | 0.3 | 94 | 0.3 | E | 2 | 2 | 1 | 1 | - | - | 3.6 | |
| 07/10:20am | 0.8 | -1.5 | 0.1 | 95 | 0.3 | ENE | 2 | 2 | 1 | 1 | - | - | 3.4 | |
| 07/10:10am | 1.1 | -1.2 | 0.4 | 95 | 0.3 | ENE | 2 | 4 | 1 | 2 | - | - | 3.2 | |
| 07/10:00am | 1.3 | -1.0 | 0.6 | 95 | 0.3 | E | 2 | 2 | 1 | 1 | - | - | 2.8 | |
| 07/09:40am | 1.3 | -1.0 | 0.5 | 94 | 0.3 | E | 2 | 2 | 1 | 1 | - | - | 1.8 | |
| 07/09:30am | 0.9 | -1.4 | 0.3 | 96 | 0.2 | ENE | 2 | 2 | 1 | 1 | - | - | 0.8 | |
| 07/09:20am | 0.9 | -1.4 | 0.1 | 94 | 0.3 | E | 2 | 2 | 1 | 1 | - | - | 0.0 | |
| 07/09:10am | 0.3 | -2.1 | -0.3 | 96 | 0.2 | ENE | 2 | 2 | 1 | 1 | - | - | 0.0 | |
| 07/09:00am | 0.0 | -2.1 | -0.6 | 96 | 0.2 | CALM | 0 | 2 | 0 | 1 | - | - | 0.0 | |
| 07/08:50am | 0.1 | -2.3 | -0.4 | 96 | 0.2 | ESE | 2 | 2 | 1 | 1 | - | - | 0.0 | |
| 07/08:40am | 0.2 | -2.6 | -0.5 | 95 | 0.3 | SW | 4 | 6 | 2 | 3 | - | - | 0.0 | |
| 07/08:30am | -0.2 | -2.3 | -0.8 | 96 | 0.2 | CALM | 0 | 2 | 0 | 1 | - | - | 0.0 | |
| 07/08:20am | -0.2 | -2.3 | -0.8 | 96 | 0.2 | CALM | 0 | 2 | 0 | 1 | - | - | 0.0 | |
| 07/08:10am | -0.9 | -3.1 | -1.4 | 96 | 0.1 | CALM | 0 | 2 | 0 | 1 | - | - | 0.0 | |
| 07/08:00am | -1.1 | -3.3 | -1.6 | 96 | 0.1 | CALM | 0 | 2 | 0 | 1 | - | - | 0.0 | |
| 07/07:50am | -1.4 | -3.6 | -1.8 | 97 | 0.1 | CALM | 0 | 2 | 0 | 1 | - | - | 0.0 | |
| 07/07:40am | -1.3 | -3.5 | -1.7 | 97 | 0.1 | CALM | 0 | 2 | 0 | 1 | - | - | 0.0 | |
| 07/07:30am | -1.2 | -3.4 | -1.6 | 97 | 0.1 | CALM | 0 | 2 | 0 | 1 | - | - | 0.0 | |
| 07/07:20am | -1.2 | -3.8 | -1.6 | 97 | 0.1 | E | 2 | 2 | 1 | 1 | - | - | 0.0 | |
| 07/07:10am | -1.1 | -3.7 | -1.5 | 97 | 0.1 | ESE | 2 | 2 | 1 | 1 | - | - | 0.0 | |
| 07/07:00am | -1.2 | -3.8 | -1.6 | 97 | 0.1 | ESE | 2 | 2 | 1 | 1 | - | - | 0.0 | |
| 07/06:50am | -1.2 | -3.8 | -1.6 | 97 | 0.1 | SE | 2 | 2 | 1 | 1 | - | - | 0.0 | |
| 07/06:40am | -1.2 | -3.8 | -1.7 | 96 | 0.1 | ESE | 2 | 2 | 1 | 1 | - | - | 0.0 | |
| 07/06:30am | -1.3 | -3.9 | -1.7 | 97 | 0.1 | SE | 2 | 2 | 1 | 1 | - | - | 0.0 | |
| 07/06:20am | -1.3 | -3.9 | -1.8 | 96 | 0.1 | ESE | 2 | 2 | 1 | 1 | - | - | 0.0 | |
| 07/06:10am | -1.4 | -4.0 | -1.8 | 97 | 0.1 | SE | 2 | 4 | 1 | 2 | - | - | 0.0 | |
| 07/06:00am | -1.5 | -4.1 | -1.9 | 97 | 0.1 | SE | 2 | 2 | 1 | 1 | - | - | 0.0 | |
| 07/05:50am | -1.4 | -4.0 | -1.9 | 96 | 0.1 | SE | 2 | 2 | 1 | 1 | - | - | 0.0 | |
| 07/05:40am | -1.3 | -3.9 | -1.7 | 97 | 0.1 | SE | 2 | 4 | 1 | 2 | - | - | 0.0 | |
| 07/05:30am | -1.2 | -4.2 | -1.6 | 97 | 0.1 | SSE | 4 | 4 | 2 | 2 | - | - | 0.0 | |
| 07/05:20am | -1.1 | -3.7 | -1.5 | 97 | 0.1 | SSE | 2 | 4 | 1 | 2 | - | - | 0.0 | |
| 07/05:10am | -1.0 | -3.6 | -1.5 | 96 | 0.1 | SE | 2 | 4 | 1 | 2 | - | - | 0.0 | |
| 07/05:00am | -0.9 | -4.2 | -1.4 | 96 | 0.1 | SSE | 6 | 9 | 3 | 5 | - | - | 0.0 | |
| 07/04:50am | -0.7 | -4.2 | -1.3 | 96 | 0.2 | SSE | 7 | 7 | 4 | 4 | - | - | 0.0 | |
| 07/04:40am | -0.4 | -3.7 | -1.0 | 96 | 0.2 | SSE | 6 | 9 | 3 | 5 | - | - | 0.0 | |
| 07/04:30am | -0.1 | -3.3 | -0.7 | 96 | 0.2 | SE | 6 | 7 | 3 | 4 | - | - | 0.0 | |
| 07/04:20am | 0.3 | -2.9 | -0.4 | 95 | 0.3 | SSE | 6 | 6 | 3 | 3 | - | - | 0.0 | |
| 07/04:10am | 1.4 | -1.3 | 0.4 | 93 | 0.4 | SE | 4 | 6 | 2 | 3 | - | - | 0.0 | |
| 07/04:00am | 3.9 | 2.0 | 2.7 | 92 | 0.5 | E | 2 | 2 | 1 | 1 | - | - | 0.0 | |
| 07/03:50am | 4.8 | 3.0 | 3.3 | 90 | 0.7 | SE | 2 | 2 | 1 | 1 | - | - | 0.0 | |
| 07/03:40am | 5.0 | 3.1 | 3.1 | 87 | 0.8 | ESE | 2 | 2 | 1 | 1 | - | - | 0.0 | |
| 07/03:30am | 5.0 | 3.1 | 2.8 | 86 | 1.0 | SSE | 2 | 2 | 1 | 1 | - | - | 0.0 | |
| 07/03:20am | 5.0 | 3.1 | 2.6 | 84 | 1.1 | SE | 2 | 2 | 1 | 1 | - | - | 0.0 | |
| 07/03:10am | 4.9 | 2.9 | 2.4 | 84 | 1.1 | NNE | 2 | 2 | 1 | 1 | - | - | 0.0 | |
| 07/03:00am | 4.7 | 2.8 | 2.7 | 87 | 0.9 | N | 2 | 2 | 1 | 1 | - | - | 0.0 | |
| 07/02:50am | 4.7 | 2.8 | 2.8 | 87 | 0.8 | SSE | 2 | 2 | 1 | 1 | - | - | 0.0 | |
| 07/02:40am | 4.7 | 2.8 | 2.8 | 87 | 0.8 | SE | 2 | 2 | 1 | 1 | - | - | 0.0 | |
| 07/02:30am | 4.7 | 2.8 | 2.7 | 87 | 0.9 | S | 2 | 2 | 1 | 1 | - | - | 0.0 | |
| 07/02:20am | 4.7 | 2.8 | 2.7 | 87 | 0.9 | WSW | 2 | 2 | 1 | 1 | - | - | 0.0 | |
| 07/02:10am | 4.8 | 2.9 | 2.7 | 86 | 0.9 | W | 2 | 2 | 1 | 1 | - | - | 0.0 | |
| 07/02:00am | 4.8 | 2.9 | 2.8 | 87 | 0.9 | NNW | 2 | 2 | 1 | 1 | - | - | 0.0 | |
| 07/01:50am | 4.9 | 3.0 | 2.8 | 86 | 0.9 | SE | 2 | 2 | 1 | 1 | - | - | 0.0 | |
| 07/01:40am | 4.9 | 3.0 | 2.6 | 85 | 1.0 | SSE | 2 | 2 | 1 | 1 | - | - | 0.0 | |
| 07/01:30am | 4.9 | 3.0 | 2.7 | 86 | 1.0 | NW | 2 | 2 | 1 | 1 | - | - | 0.0 | |
| 07/01:20am | 5.0 | 3.1 | 2.7 | 85 | 1.0 | NW | 2 | 2 | 1 | 1 | - | - | 0.0 | |
| 07/01:10am | 5.1 | 3.1 | 2.4 | 83 | 1.2 | NW | 2 | 2 | 1 | 1 | - | - | 0.0 | |
| 07/01:00am | 5.1 | 3.1 | 2.2 | 81 | 1.3 | NW | 2 | 2 | 1 | 1 | - | - | 0.0 | |
| 07/12:50am | 5.1 | 3.1 | 2.2 | 81 | 1.3 | NW | 2 | 2 | 1 | 1 | - | - | 0.0 | |
| 07/12:40am | 5.2 | 3.2 | 2.1 | 80 | 1.3 | SSW | 2 | 2 | 1 | 1 | - | - | 0.0 | |
| 07/12:30am | 5.2 | 3.2 | 2.1 | 80 | 1.3 | ESE | 2 | 2 | 1 | 1 | - | - | 0.0 | |
| 07/12:20am | 5.2 | 3.5 | 2.1 | 80 | 1.3 | CALM | 0 | 2 | 0 | 1 | - | - | 0.0 | |
| 07/12:10am | 5.1 | 3.0 | 1.9 | 80 | 1.4 | NW | 2 | 2 | 1 | 1 | - | - | 0.0 | |
| 07/12:00am | 4.9 | 2.8 | 1.7 | 80 | 1.4 | WNW | 2 | 2 | 1 | 1 | - | - | 0.0 | |
| Date/Time EST |
Temp °C |
App Temp °C |
Dew Point °C |
Rel Hum % |
Delta-T °C |
Wind | Press QNH hPa |
Press MSL hPa |
Rain since 9am mm |
||||
|---|---|---|---|---|---|---|---|---|---|---|---|---|---|
| Dir | Spd km/h |
Gust km/h |
Spd kts |
Gust kts |
|||||||||
| 06/11:50pm | 4.9 | 2.8 | 1.7 | 80 | 1.4 | NW | 2 | 2 | 1 | 1 | - | - | 0.0 |
| 06/11:40pm | 5.0 | 2.9 | 1.6 | 79 | 1.5 | W | 2 | 2 | 1 | 1 | - | - | 0.0 |
| 06/11:30pm | 4.9 | 2.8 | 1.6 | 79 | 1.4 | SSW | 2 | 2 | 1 | 1 | - | - | 0.0 |
| 06/11:20pm | 4.8 | 2.7 | 1.6 | 80 | 1.4 | W | 2 | 2 | 1 | 1 | - | - | 0.0 |
| 06/11:10pm | 4.8 | 2.6 | 1.3 | 78 | 1.5 | WNW | 2 | 4 | 1 | 2 | - | - | 0.0 |
| 06/11:00pm | 4.6 | 2.4 | 1.2 | 78 | 1.4 | WNW | 2 | 2 | 1 | 1 | - | - | 0.0 |
| 06/10:50pm | 4.5 | 2.3 | 1.2 | 79 | 1.4 | WNW | 2 | 2 | 1 | 1 | - | - | 0.0 |
| 06/10:40pm | 4.5 | 2.4 | 1.4 | 80 | 1.3 | NW | 2 | 2 | 1 | 1 | - | - | 0.0 |
| 06/10:30pm | 4.6 | 2.5 | 1.7 | 81 | 1.2 | NW | 2 | 2 | 1 | 1 | - | - | 0.0 |
| 06/10:20pm | 4.7 | 2.6 | 1.7 | 81 | 1.3 | NW | 2 | 2 | 1 | 1 | - | - | 0.0 |
| 06/10:10pm | 4.7 | 3.0 | 1.8 | 81 | 1.2 | CALM | 0 | 2 | 0 | 1 | - | - | 0.0 |
| 06/10:00pm | 4.9 | 2.8 | 1.7 | 80 | 1.4 | S | 2 | 2 | 1 | 1 | - | - | 0.0 |
| 06/09:50pm | 4.9 | 2.8 | 2.0 | 81 | 1.3 | WNW | 2 | 2 | 1 | 1 | - | - | 0.0 |
| 06/09:40pm | 5.1 | 3.1 | 2.2 | 81 | 1.3 | NW | 2 | 2 | 1 | 1 | - | - | 0.0 |
| 06/09:30pm | 5.2 | 3.2 | 2.4 | 82 | 1.2 | WNW | 2 | 2 | 1 | 1 | - | - | 0.0 |
| 06/09:20pm | 5.3 | 3.0 | 2.5 | 82 | 1.2 | NW | 4 | 11 | 2 | 6 | - | - | 0.0 |
| 06/09:10pm | 5.4 | 1.7 | 2.5 | 81 | 1.3 | NNW | 11 | 15 | 6 | 8 | - | - | 0.0 |
| 06/09:00pm | 5.4 | 1.7 | 2.5 | 81 | 1.3 | NW | 11 | 13 | 6 | 7 | - | - | 0.0 |
| 06/08:50pm | 5.4 | 1.7 | 2.5 | 81 | 1.3 | NW | 11 | 15 | 6 | 8 | - | - | 0.0 |
| 06/08:40pm | 5.6 | 1.9 | 2.3 | 79 | 1.4 | NW | 11 | 17 | 6 | 9 | - | - | 0.0 |
| 06/08:30pm | 5.5 | 2.2 | 2.2 | 79 | 1.4 | NW | 9 | 13 | 5 | 7 | - | - | 0.0 |
| 06/08:20pm | 5.5 | 2.5 | 2.0 | 78 | 1.5 | NW | 7 | 9 | 4 | 5 | - | - | 0.0 |
| 06/08:10pm | 5.6 | 2.6 | 1.9 | 77 | 1.6 | NW | 7 | 9 | 4 | 5 | - | - | 0.0 |
| 06/08:00pm | 5.8 | 2.4 | 1.8 | 75 | 1.7 | NW | 9 | 13 | 5 | 7 | - | - | 0.0 |
| 06/07:50pm | 6.0 | 3.0 | 1.9 | 75 | 1.8 | NW | 7 | 11 | 4 | 6 | - | - | 0.0 |
| 06/07:40pm | 6.1 | 3.1 | 1.8 | 74 | 1.9 | NW | 7 | 11 | 4 | 6 | - | - | 0.0 |
| 06/07:30pm | 6.2 | 2.8 | 2.0 | 74 | 1.8 | NW | 9 | 13 | 5 | 7 | - | - | 0.0 |
| 06/07:20pm | 6.5 | 2.4 | 2.0 | 73 | 2.0 | NW | 13 | 19 | 7 | 10 | - | - | 0.0 |
| 06/07:10pm | 6.7 | 2.1 | 1.8 | 71 | 2.1 | NW | 15 | 19 | 8 | 10 | - | - | 0.0 |
| 06/07:00pm | 6.8 | 2.2 | 1.8 | 70 | 2.2 | NW | 15 | 20 | 8 | 11 | - | - | 0.0 |
| 06/06:50pm | 6.9 | 2.8 | 2.0 | 71 | 2.2 | NW | 13 | 17 | 7 | 9 | - | - | 0.0 |
| 06/06:40pm | 7.0 | 2.4 | 1.3 | 67 | 2.5 | NW | 15 | 20 | 8 | 11 | - | - | 0.0 |
| 06/06:30pm | 7.0 | 2.1 | 1.9 | 70 | 2.2 | WNW | 17 | 26 | 9 | 14 | - | - | 0.0 |
Other formats
Comma delimited format used in spreadsheet applications
http://www.bom.gov.au/fwo/IDN60801/IDN60801.99143.axf
JavaScript Object Notation format (JSON) in row-major order
http://www.bom.gov.au/fwo/IDN60801/IDN60801.99143.json
Data quality
Most of these data are generated automatically and are frequently updated. Quality checks on data are not normally performed. It is possible for incorrect values to appear. Refer to information at About Latest Weather Observations and please check the disclaimer before using these data.
